This is the latest recevied weather packets stored in our database for station/object W4CKA. If no packets are shown the sender has not sent any weather packets the latest 10 day(s).
| Time | Temp. | Humidity | Pressure | Rain* | Wind** | Luminosity | Snow |
|---|---|---|---|---|---|---|---|
| 1787403681 | 21.67° C | 99% | 1058.9 hPa | 0 mm | - | 171 W/m² | - |
| 1787403077 | 21.11° C | 99% | 1059 hPa | 0 mm | - | 131 W/m² | - |
| 1787402473 | 20.56° C | 99% | 1058.8 hPa | 0 mm | - | 110 W/m² | - |
| 1787401874 | 19.44° C | 99% | 1058.9 hPa | 0 mm | - | 73 W/m² | - |
| 1787401271 | 19.44° C | 99% | 1058.9 hPa | 0 mm | - | 78 W/m² | - |
| 1787400668 | 18.89° C | 99% | 1058.8 hPa | 0 mm | - | 60 W/m² | - |
| 1787400062 | 18.89° C | 99% | 1058.8 hPa | 0 mm | - | 53 W/m² | - |
| 1787399462 | 18.33° C | 99% | 1058.7 hPa | 0 mm | - | 38 W/m² | - |
| 1787398861 | 18.33° C | 99% | 1058.6 hPa | 0 mm | - | 35 W/m² | - |
| 1787398260 | 18.33° C | 99% | 1058.5 hPa | 0 mm | - | 21 W/m² | - |
| 1787397655 | 18.33° C | 99% | 1058.4 hPa | 0 mm | - | 13 W/m² | - |
| 1787397055 | 18.33° C | 99% | 1058.4 hPa | 0 mm | - | 6 W/m² | - |
| 1787396453 | 18.33° C | 99% | 1057.9 hPa | 0 mm | - | 0 W/m² | - |
| 1787395847 | 18.33° C | 99% | 1057.8 hPa | 0 mm | - | 0 W/m² | - |
| 1787395242 | 18.33° C | 99% | 1057.7 hPa | 0 mm | - | 0 W/m² | - |
| 1787394639 | 18.33° C | 99% | 1057.5 hPa | 0 mm | - | 0 W/m² | - |
| 1787394034 | 18.33° C | 99% | 1057.6 hPa | 0 mm | - | 0 W/m² | - |
| 1787393430 | 18.33° C | 99% | 1057.5 hPa | 0 mm | - | 0 W/m² | - |
| 1787392826 | 18.89° C | 99% | 1057.5 hPa | 0.51 mm | - | 0 W/m² | - |
| 1787392226 | 18.89° C | 99% | 1057.4 hPa | 0 mm | - | 0 W/m² | - |
| 1787391624 | 18.89° C | 99% | 1057.3 hPa | 0 mm | - | 0 W/m² | - |
| 1787391023 | 18.89° C | 99% | 1057.2 hPa | 0 mm | - | 0 W/m² | - |
| 1787390420 | 18.89° C | 99% | 1057.3 hPa | 0 mm | - | 0 W/m² | - |
| 1787389817 | 18.89° C | 99% | 1057.2 hPa | 0 mm | - | 0 W/m² | - |
| 1787389215 | 18.89° C | 99% | 1057.2 hPa | 0 mm | - | 0 W/m² | - |
* Rain latest hour (hover to see other rain measurements)
** Current wind speed in m/s (hover to see current wind gust speed)